#timestamp,LO_Frequency,Hit,Temp,Hum 
1493866815.4,286046969.8,N,0.0,0.0
1493866835.2,286046953.6,N,0.0,0.0
1493866855.1,286046970.1,N,0.0,0.0
1493866856.0,286046970.1,N,0.0,0.0
1493866875.8,286046959.9,N,0.0,0.0
1493866895.2,286046959.0,N,0.0,0.0
1493866915.0,286046953.3,N,0.0,0.0
1493866915.9,286046953.3,N,0.0,0.0
1493866935.8,286046955.8,N,0.0,0.0
1493866955.6,286046946.1,N,0.0,0.0
1493866975.4,286046968.3,N,0.0,0.0
1493866995.3,286046945.6,N,0.0,0.0
1493867015.1,286046946.4,N,0.0,0.0
1493867035.9,286046944.4,N,0.0,0.0
1493867055.7,286046944.7,N,0.0,0.0
1493867075.6,286046945.0,N,0.0,0.0
1493867095.4,286046940.7,N,0.0,0.0
1493867115.2,286046943.1,N,0.0,0.0
1493867135.1,286046939.0,N,0.0,0.0
1493867136.0,286046939.0,N,0.0,0.0
1493867155.8,286046931.5,N,0.0,0.0
1493867175.6,286046934.1,N,0.0,0.0
1493867195.5,286046934.3,N,0.0,0.0
1493867215.3,286046932.6,N,0.0,0.0
1493867235.1,286046930.5,N,0.0,0.0
1493867255.9,286046929.5,N,0.0,0.0
1493867275.7,286046926.6,N,0.0,0.0
1493867295.5,286046927.2,N,0.0,0.0
1493867315.3,286046924.7,N,0.0,0.0
1493867335.2,286046924.7,N,0.0,0.0
1493867355.0,286046927.6,N,0.0,0.0
1493867355.9,286046927.6,N,0.0,0.0
1493867375.7,286046927.4,N,0.0,0.0
1493867395.6,286046923.2,N,0.0,0.0
1493867415.4,286046924.3,N,0.0,0.0
1493867435.2,286046922.7,N,0.0,0.0
1493867455.1,286046918.4,N,0.0,0.0
1493867456.0,286046918.4,N,0.0,0.0
1493867475.8,286046916.7,N,0.0,0.0
1493867495.6,286046915.1,N,0.0,0.0
1493867515.8,286046918.0,N,0.0,0.0
1493867535.6,286046913.5,N,0.0,0.0
1493867555.5,286046916.4,N,0.0,0.0
1493867575.3,286046912.0,N,0.0,0.0
1493867595.1,286046914.7,N,0.0,0.0
1493867615.9,286046910.1,N,0.0,0.0
1493867635.7,286046881.5,N,0.0,0.0
1493867655.5,286046896.0,N,0.0,0.0
1493867675.3,286046916.6,N,0.0,0.0
1493867695.2,286046923.7,N,0.0,0.0
1493867715.0,286046913.7,N,0.0,0.0
1493867735.3,286046905.5,N,0.0,0.0
1493867755.1,286046902.2,N,0.0,0.0
1493867775.9,286046902.0,N,0.0,0.0
1493867795.7,286046899.8,N,0.0,0.0
1493867815.2,286046897.5,N,0.0,0.0
1493867835.1,286046898.2,N,0.0,0.0
1493867836.0,286046898.2,N,0.0,0.0
1493867855.8,286046901.5,N,0.0,0.0
1493867875.6,286046878.7,N,0.0,0.0
1493867895.5,286046882.1,N,0.0,0.0
1493867915.3,286046901.0,N,0.0,0.0
1493867935.1,286046899.2,N,0.0,0.0
1493867955.9,286046896.7,N,0.0,0.0
1493867975.7,286046883.3,N,0.0,0.0
1493867995.5,286046939.5,N,0.0,0.0
1493868015.4,286046877.8,N,0.0,0.0
1493868035.2,286046898.7,N,0.0,0.0
1493868055.0,286046887.3,N,0.0,0.0
1493868055.9,286046887.3,N,0.0,0.0
1493868075.8,286046898.2,N,0.0,0.0
1493868095.6,286046891.1,N,0.0,0.0
1493868115.4,286046889.9,N,0.0,0.0
1493868135.3,286046887.9,N,0.0,0.0
1493868155.5,286046887.6,N,0.0,0.0
1493868175.4,286046885.4,N,0.0,0.0
1493868195.2,286046884.4,N,0.0,0.0
1493868215.0,286046881.7,N,0.0,0.0
1493868215.9,286046881.7,N,0.0,0.0
1493868235.8,286046882.1,N,0.0,0.0
1493868255.6,286046879.9,N,0.0,0.0
1493868275.4,286046883.1,N,0.0,0.0
1493868295.3,286046882.6,N,0.0,0.0
1493868315.1,286046881.7,N,0.0,0.0
1493868335.4,286046881.1,N,0.0,0.0
1493868355.2,286046879.7,N,0.0,0.0
1493868375.1,286046880.0,N,0.0,0.0
1493868376.0,286046880.0,N,0.0,0.0
1493868395.8,286046880.9,N,0.0,0.0
1493868415.6,286046881.1,N,0.0,0.0
1493868435.5,286046880.8,N,0.0,0.0
1493868455.3,286046880.4,N,0.0,0.0
1493868475.1,286046881.2,N,0.0,0.0
1493868495.9,286046879.1,N,0.0,0.0
1493868515.7,286046877.0,N,0.0,0.0
1493868535.5,286046879.0,N,0.0,0.0
1493868555.4,286046877.1,N,0.0,0.0
1493868575.2,286046879.1,N,0.0,0.0
1493868595.0,286046876.7,N,0.0,0.0
1493868595.9,286046876.7,N,0.0,0.0
1493868615.9,286046877.5,N,0.0,0.0
1493868635.7,286046877.5,N,0.0,0.0
1493868655.7,286046877.2,N,0.0,0.0
1493868675.5,286046877.6,N,0.0,0.0
1493868695.4,286046877.2,N,0.0,0.0
1493868715.2,286046877.7,N,0.0,0.0
1493868735.0,286046875.2,N,0.0,0.0
1493868735.9,286046875.2,N,0.0,0.0
1493868755.8,286046877.5,N,0.0,0.0
1493868775.6,286046877.7,N,0.0,0.0
1493868795.4,286046877.3,N,0.0,0.0
1493868815.3,286046877.2,N,0.0,0.0
1493868835.1,286046879.6,N,0.0,0.0
1493868836.0,286046879.6,N,0.0,0.0
1493868855.8,286046877.8,N,0.0,0.0
1493868875.7,286046877.7,N,0.0,0.0
1493868895.5,286046879.0,N,0.0,0.0
1493868915.3,286046878.7,N,0.0,0.0
1493868935.1,286046878.3,N,0.0,0.0
1493868955.9,286046879.0,N,0.0,0.0
1493868975.7,286046876.8,N,0.0,0.0
1493868995.8,286046877.2,N,0.0,0.0
1493869015.6,286046877.5,N,0.0,0.0
1493869035.4,286046877.6,N,0.0,0.0
1493869055.3,286046877.3,N,0.0,0.0
1493869075.1,286046874.9,N,0.0,0.0
1493869095.8,286046876.9,N,0.0,0.0
1493869115.7,286046878.1,N,0.0,0.0
1493869135.5,286046879.8,N,0.0,0.0
1493869155.3,286046880.9,N,0.0,0.0
1493869175.2,286046880.9,N,0.0,0.0
1493869195.0,286046878.3,N,0.0,0.0
1493869195.9,286046878.3,N,0.0,0.0
1493869215.6,286046878.3,N,0.0,0.0
1493869235.6,286046879.2,N,0.0,0.0
1493869255.4,286046876.9,N,0.0,0.0
1493869275.4,286046878.6,N,0.0,0.0
1493869295.3,286046880.9,N,0.0,0.0
1493869315.1,286046882.8,N,0.0,0.0
1493869335.8,286046882.6,N,0.0,0.0
1493869355.7,286046879.8,N,0.0,0.0
1493869375.5,286046882.7,N,0.0,0.0
1493869395.3,286046882.8,N,0.0,0.0
1493869415.2,286046882.8,N,0.0,0.0
1493869435.9,286046881.2,N,0.0,0.0
1493869455.7,286046878.4,N,0.0,0.0
1493869475.7,286046881.1,N,0.0,0.0
1493869495.6,286046879.9,N,0.0,0.0
1493869515.4,286046880.6,N,0.0,0.0
1493869535.2,286046882.1,N,0.0,0.0
1493869555.1,286046880.0,N,0.0,0.0
1493869556.0,286046880.0,N,0.0,0.0
1493869575.8,286046878.9,N,0.0,0.0
1493869595.6,286046879.2,N,0.0,0.0
1493869615.5,286046880.7,N,0.0,0.0
1493869635.3,286046880.0,N,0.0,0.0
1493869655.1,286046881.2,N,0.0,0.0
1493869675.9,286046880.7,N,0.0,0.0
1493869695.7,286046882.6,N,0.0,0.0
1493869715.5,286046881.5,N,0.0,0.0
1493869735.3,286046885.7,N,0.0,0.0
1493869755.2,286046884.6,N,0.0,0.0
1493869775.0,286046890.0,N,0.0,0.0
1493869775.9,286046890.0,N,0.0,0.0
1493869795.7,286046888.7,N,0.0,0.0
1493869815.6,286046885.2,N,0.0,0.0
1493869835.4,286046885.5,N,0.0,0.0
1493869855.2,286046885.7,N,0.0,0.0
1493869875.1,286046883.8,N,0.0,0.0
1493869876.0,286046883.8,N,0.0,0.0
1493869895.8,286046884.4,N,0.0,0.0
1493869915.6,286046914.1,N,0.0,0.0
1493869935.5,286046914.1,N,0.0,0.0
1493869955.3,286046913.7,N,0.0,0.0
1493869975.1,286046913.7,N,0.0,0.0
1493869995.9,286046913.3,N,0.0,0.0
1493870015.7,286046883.5,N,0.0,0.0
1493870035.5,286046880.2,N,0.0,0.0
1493870055.4,286046879.9,N,0.0,0.0
1493870075.2,286046886.4,N,0.0,0.0
1493870095.0,286046888.4,N,0.0,0.0
1493870095.9,286046888.4,N,0.0,0.0
1493870115.8,286046886.2,N,0.0,0.0
1493870135.6,286046889.0,N,0.0,0.0
1493870155.4,286046890.3,N,0.0,0.0
1493870175.3,286046927.5,N,0.0,0.0
1493870195.1,286046895.7,N,0.0,0.0
1493870215.4,286046893.6,N,0.0,0.0
1493870235.2,286046891.9,N,0.0,0.0
1493870255.0,286046890.0,N,0.0,0.0
1493870255.9,286046890.0,N,0.0,0.0
1493870275.4,286046892.3,N,0.0,0.0
1493870295.2,286046889.8,N,0.0,0.0
1493870315.0,286046891.6,N,0.0,0.0
1493870315.9,286046891.6,N,0.0,0.0
1493870335.7,286046891.8,N,0.0,0.0
1493870355.6,286046892.4,N,0.0,0.0
1493870375.4,286046892.4,N,0.0,0.0
1493870395.2,286046887.4,N,0.0,0.0
